Content
SEND FEEDBACK

Daily
Averages
Monthly
Summary
United States of America

ASHEVILLE, NORTH CAROLINA


Home > North America > United States > North Carolina
Elevation: 2240 feet     Latitude: 35 36N     Longitude: 082 32W

WEATHER
 
SELECT A DAY
Number of Records: 231,105;   Date Range: 1/1/95 - 12/18/14
 
SHARE

PRINT THIS DATA

[ ← Previous Day ]
WEATHER ALMANAC - MARCH 28, 2013
[ Next Day → ]
[ °C ]   °F
Weather ElementAverageHighLow
Temperature39.2 °F52 °F (3:54 pm)27 °F (5:54 am)
Dewpoint18.6 °F21.9 °F (8:54 am)16 °F (4:54 pm)
Humidity46.7 %75 % (5:54 am)25 % (4:54 pm)
Barometer30.26 in30.31 in (9:54 am)30.20 in (4:54 pm)
Wind Speed7.7 mph15 mph (4:54 pm)
Wind Gust24.2 mph (4:54 pm)
Weather ElementAverage
Visibility10 mi
Wind DirectionWSW (230.9 °)

Weather ElementTotal
Precipitation---
Heating Degree Days25.5 (Base 65)
Averaged from 23 records on March 28, 2013
WEATHER CONDITIONS BREAKOUT
WIND DIRECTION BREAKOUT
WEATHER BY HOUR - MARCH 28, 2013
[ °C ]   °F
Local TimeTemperatureDewpointHumidityBarometerVisibilityWind DirectionWind SpeedGust SpeedPrecipitationEventsConditions
1:54 AM32.0 °F19.0 °F59 %30.25 in10.0 miNNW (340°)11.5 mphClear
2:54 AM30.9 °F19.0 °F61 %30.24 in10.0 miNorth (350°)4.6 mphClear
3:54 AM30.9 °F19.0 °F61 %30.23 in10.0 miNNW (340°)5.8 mphClear
4:54 AM30.9 °F19.0 °F61 %30.24 in10.0 miNorth (350°)6.9 mphClear
5:54 AM27.0 °F19.9 °F75 %30.25 in10.0 miNorth (350°)5.8 mphClear
6:54 AM28.9 °F19.9 °F69 %30.27 in10.0 miNorth (10°)4.6 mphClear
7:54 AM28.9 °F21.0 °F72 %30.29 in10.0 miCalmClear
8:54 AM34.0 °F21.9 °F61 %30.30 in10.0 miCalmClear
9:54 AM37.0 °F21.0 °F52 %30.31 in10.0 miNorth (360°)10.4 mphClear
10:54 AM39.0 °F19.9 °F46 %30.30 in10.0 miNorth (360°)12.7 mph20.7 mphClear
11:54 AM42.1 °F19.0 °F40 %30.29 in10.0 miNorth (360°)13.8 mph19.6 mphClear
12:54 PM45.0 °F19.0 °F36 %30.27 in10.0 miNorth (360°)12.7 mph18.4 mphClear
1:54 PM46.9 °F18.0 °F32 %30.26 in10.0 miNorth (360°)13.8 mph20.7 mphClear
2:54 PM50.0 °F18.0 °F28 %30.24 in10.0 miNNE (20°)11.5 mph18.4 mphClear
3:54 PM52.0 °F18.0 °F26 %30.21 in10.0 miNorth (350°)8.1 mphClear
4:54 PM51.1 °F16.0 °F25 %30.20 in10.0 miNorth (10°)15.0 mph24.2 mphClear
5:54 PM50.0 °F16.0 °F26 %30.22 in10.0 miNorth (360°)10.4 mph21.9 mphClear
6:54 PM48.9 °F17.1 °F28 %30.23 in10.0 miNorth (350°)11.5 mphClear
7:54 PM46.0 °F16.0 °F30 %30.25 in10.0 miNorth (350°)10.4 mph16.1 mphClear
8:54 PM44.1 °F16.0 °F32 %30.27 in10.0 miNorth (10°)3.5 mphClear
9:54 PM39.0 °F17.1 °F41 %30.29 in10.0 miNW (320°)3.5 mphClear
10:54 PM36.0 °F19.0 °F50 %30.30 in10.0 miCalmClear
11:54 PM30.9 °F19.9 °F64 %30.31 in10.0 miCalmClear
Hourly data recorded from KAVL, located miles away from Asheville, North Carolina







STORIES FROM OUR PARTNERS